DateTimeUTC,F1_A11,F1_S11,BsB_S11,BsG_S11,BsR_S11,BbsB_S11,BbsG_S11,BbsR_S11,BaB_A11,BaG_A11,BaR_A11,Tu_S11,T_S11,Uu_S11,U_S11,P_S11,T1_A11
2021-08-17T05:00:00Z,00000200,20000000,,,,,,,0000.10,-000.11,0000.12,18.5,25.1,08.7,05.8,0675.3,30.9
2021-08-17T05:01:00Z,00000200,20000000,,,,,,,-000.27,0000.03,-000.22,18.5,25.1,08.5,05.7,0675.3,30.9
2021-08-17T05:02:00Z,00000200,20000000,,,,,,,-000.25,-000.40,-000.29,18.5,25.1,08.6,05.7,0675.3,30.9
2021-08-17T05:03:00Z,00000200,60000000,,,,,,,0000.53,0001.02,0000.67,18.5,25.2,08.6,05.7,0675.3,30.9
2021-08-17T05:04:00Z,00000200,40000000,0002.53,0002.46,0001.45,0000.62,0000.13,-000.10,0001.11,0000.60,0000.99,18.6,25.0,08.6,05.8,0676.3,30.9
2021-08-17T05:05:00Z,00000200,00000000,0003.28,0002.33,0001.14,0000.48,0000.40,0000.01,0001.11,0001.12,0000.80,18.6,24.9,08.9,06.0,0676.3,30.9
2021-08-17T05:06:00Z,00000200,00000000,0002.75,0002.43,0001.45,0000.37,0000.30,0000.03,0000.70,0000.44,-000.23,18.6,24.9,09.1,06.2,0676.3,30.9
2021-08-17T05:07:00Z,00000200,00000000,0003.73,0002.45,0001.49,0000.71,0000.44,0000.01,0000.54,0000.37,0001.02,18.6,24.9,09.1,06.2,0676.3,30.9
2021-08-17T05:08:00Z,00000200,00000000,0003.07,0002.83,0001.39,0000.17,0000.44,0000.20,0000.54,0000.78,0000.06,18.6,24.9,09.2,06.3,0676.3,30.9
2021-08-17T05:09:00Z,00000200,00000000,0003.14,0002.40,0001.88,-000.25,0000.46,0000.27,0000.46,0000.62,0000.89,18.6,24.9,09.1,06.2,0676.3,30.9
2021-08-17T05:10:00Z,00000200,00000000,0004.17,0002.58,0001.42,0000.11,0000.17,0000.16,0000.97,0000.51,0000.57,18.6,24.8,09.0,06.1,0676.4,30.9
2021-08-17T05:11:00Z,00000200,00000000,0003.44,0002.64,0001.57,0000.49,0000.30,0000.37,0000.23,0000.57,0000.38,18.6,24.8,08.8,06.0,0676.4,30.9
2021-08-17T05:12:00Z,00000200,00000000,0002.66,0002.59,0001.58,0000.42,0000.43,0000.11,0000.50,0000.38,-000.26,18.7,24.8,08.6,05.9,0676.4,30.9
2021-08-17T05:13:00Z,00000200,00000000,0003.36,0002.72,0001.54,0000.36,0000.43,0000.41,0000.32,0000.14,0000.51,18.7,24.9,08.5,05.8,0676.4,30.9
2021-08-17T05:14:00Z,00000200,00000000,0003.23,0002.24,0001.40,0001.20,0000.38,0000.24,0000.06,0000.24,0000.22,18.7,24.9,08.3,05.7,0676.4,30.9
2021-08-17T05:15:00Z,00000200,00000000,0003.76,0002.49,0001.65,0000.32,0000.09,0000.16,0000.88,0000.79,0000.30,18.8,24.9,08.1,05.6,0676.4,30.9
2021-08-17T05:16:00Z,00000200,00000000,0003.85,0002.25,0001.74,0000.69,0000.47,0000.52,0000.21,-000.22,0000.20,18.8,24.9,07.9,05.4,0676.4,30.9
2021-08-17T05:17:00Z,00000200,00000000,0002.92,0002.60,0001.32,0000.45,0000.29,0000.19,0000.48,0000.43,-000.03,18.7,24.9,07.8,05.4,0676.4,30.9
2021-08-17T05:18:00Z,00000200,00000000,0003.58,0002.40,0001.37,0000.65,0000.43,0000.24,0000.75,0000.75,0000.66,18.7,24.9,07.8,05.4,0676.4,30.9
2021-08-17T05:19:00Z,00000200,00000000,0004.14,0002.45,0001.28,0000.02,0000.47,-000.14,0000.66,0000.86,0000.42,18.7,24.9,08.0,05.5,0676.4,30.9
2021-08-17T05:20:00Z,00000200,00000000,0003.55,0002.33,0001.03,0000.58,0000.33,-000.27,0000.58,0000.34,0000.60,18.7,24.9,08.1,05.5,0676.4,30.9
2021-08-17T05:21:00Z,00000200,00000000,0002.74,0002.26,0001.47,0000.53,0000.21,0000.43,0000.70,0000.82,0000.70,18.7,24.9,08.1,05.5,0676.4,30.9
2021-08-17T05:22:00Z,00000200,00000000,0003.16,0002.24,0001.41,0000.46,0000.19,0000.15,0000.55,0000.42,0000.19,18.6,24.9,08.1,05.5,0676.4,30.9
2021-08-17T05:23:00Z,00000200,00000000,0003.35,0002.64,0001.62,0001.13,0000.46,0000.10,0000.58,0000.33,0000.33,18.6,24.8,08.1,05.5,0676.4,30.9
2021-08-17T05:24:00Z,00000200,00000000,0003.39,0002.73,0001.43,0000.53,0000.22,0000.42,0000.27,0000.61,0000.10,18.6,24.8,08.0,05.5,0676.4,30.9
2021-08-17T05:25:00Z,00000200,00000000,0003.52,0002.40,0001.25,0000.74,0000.34,-000.03,0000.80,0000.42,0000.64,18.6,24.8,07.9,05.4,0676.4,30.9
2021-08-17T05:26:00Z,00000200,00000000,0004.01,0002.53,0001.71,0000.56,0000.39,0000.18,0000.37,0000.74,0000.69,18.6,24.8,07.8,05.3,0676.4,30.9
2021-08-17T05:27:00Z,00000200,00000000,0003.33,0001.78,0001.00,0000.48,0000.31,0000.24,0000.68,0000.48,0000.27,18.7,24.9,07.9,05.4,0676.4,30.9
2021-08-17T05:28:00Z,00000200,00000000,0002.77,0002.22,0001.04,0000.32,0000.25,-000.04,0000.40,0000.08,0000.54,18.7,24.9,08.0,05.5,0676.5,30.9
2021-08-17T05:29:00Z,00000200,00000000,0002.64,0001.37,0001.05,0000.64,0000.49,0000.19,0000.73,0000.83,0000.08,18.7,24.9,07.9,05.4,0676.5,30.9
2021-08-17T05:30:00Z,00000200,00000000,0002.56,0001.62,0000.98,0000.15,0000.06,0000.08,-000.29,-000.33,-000.07,18.7,24.9,07.8,05.4,0676.5,30.9
2021-08-17T05:31:00Z,00000200,00000000,0003.25,0002.09,0001.27,0000.54,0000.66,0000.30,0000.24,0000.32,0000.09,18.7,24.9,07.6,05.2,0676.5,30.9
2021-08-17T05:32:00Z,00000200,00000000,0003.57,0002.74,0001.22,0000.64,0000.28,0000.27,0000.39,0000.55,0000.27,18.7,24.9,07.4,05.1,0676.5,30.9
2021-08-17T05:33:00Z,00000200,00000000,0003.51,0002.77,0001.46,0000.92,0000.15,0000.21,0000.73,0000.32,0000.39,18.7,24.9,07.4,05.0,0676.5,30.9
2021-08-17T05:34:00Z,00000200,00000000,0003.80,0002.26,0001.51,0000.10,0000.30,0000.56,0000.78,0001.01,0000.61,18.6,24.8,07.2,04.9,0676.5,30.9
2021-08-17T05:35:00Z,00000200,00000000,0004.15,0002.94,0001.28,0000.36,0000.09,0000.36,0000.50,0000.14,0000.48,18.6,24.8,07.1,04.9,0676.5,30.9
2021-08-17T05:36:00Z,00000200,00000000,0003.27,0002.13,0001.08,0000.00,0000.26,0000.02,0000.46,0000.69,0000.29,18.6,24.8,07.2,04.9,0676.5,30.9
2021-08-17T05:37:00Z,00000200,00000000,0002.41,0002.16,0000.88,0000.12,0000.43,0000.09,0000.48,0000.39,0000.26,18.6,24.8,07.2,04.9,0676.5,30.9
2021-08-17T05:38:00Z,00000200,00000000,0002.26,0001.41,0000.78,0000.47,0000.16,0000.29,0000.51,0000.52,0000.33,18.6,24.8,07.3,05.0,0676.5,30.9
2021-08-17T05:39:00Z,00000200,00000000,0001.54,0001.45,0000.81,0000.02,-000.06,0000.04,0000.69,0000.14,0000.54,18.5,24.8,07.3,05.0,0676.5,30.9
2021-08-17T05:40:00Z,00000200,00000000,0003.20,0001.69,0000.69,0000.83,0000.22,-000.04,0000.01,0000.45,0000.11,18.5,24.8,07.2,04.9,0676.6,30.9
2021-08-17T05:41:00Z,00000200,00000000,0002.23,0001.43,0000.63,0000.54,-000.05,0000.40,0000.02,0000.02,0000.30,18.6,24.8,07.0,04.8,0676.6,30.9
2021-08-17T05:42:00Z,00000200,00000000,0002.16,0001.64,0000.55,0000.28,0000.43,0000.02,0000.51,0000.41,0000.02,18.6,24.8,06.9,04.8,0676.5,30.9
2021-08-17T05:43:00Z,00000200,00000000,0001.46,0001.32,0000.36,0000.18,0000.17,-000.14,0000.82,0000.61,0000.37,18.7,24.9,07.0,04.8,0676.5,30.9
2021-08-17T05:44:00Z,00000200,00000000,0000.99,0000.58,0000.37,0000.59,-000.22,-000.16,0000.50,0000.32,0000.64,18.7,24.9,07.1,04.9,0676.5,30.9
2021-08-17T05:45:00Z,00000200,00000000,0001.47,0000.83,0000.18,0000.51,0000.06,0000.09,0000.21,0000.46,0000.22,18.7,24.9,07.4,05.1,0676.6,30.9
2021-08-17T05:46:00Z,00000200,00000000,0001.42,0000.92,0000.15,0000.42,0000.34,0000.25,0000.52,0000.44,0000.27,18.7,24.9,07.6,05.2,0676.6,30.9
2021-08-17T05:47:00Z,00000200,00000000,0000.79,0000.62,0000.21,0000.10,0000.22,-000.05,-000.04,-000.11,0000.10,18.7,24.8,07.7,05.3,0676.6,30.9
2021-08-17T05:48:00Z,00000200,00000000,0001.74,0000.51,0000.25,-000.62,0000.05,0000.17,-000.25,0000.04,-000.19,18.7,24.8,07.5,05.2,0676.7,30.9
2021-08-17T05:49:00Z,00000200,00000000,0000.85,0000.51,-000.05,0000.59,0000.10,0000.04,0000.40,0000.15,0000.10,18.6,24.8,07.4,05.1,0676.7,30.9
2021-08-17T05:50:00Z,00000200,00000000,0000.25,0000.11,-000.08,0000.72,0000.36,-000.04,-000.03,-000.02,0000.07,18.6,24.8,07.5,05.1,0676.6,30.9
2021-08-17T05:51:00Z,00000200,00000000,0000.70,0000.53,-000.15,0000.60,0000.28,0000.05,0000.14,0000.15,0000.19,18.6,24.8,07.6,05.2,0676.6,30.9
2021-08-17T05:52:00Z,00000200,00000000,0000.94,0000.58,0000.03,0000.41,-000.06,0000.03,0000.18,-000.10,-000.25,18.6,24.8,07.5,05.1,0676.6,30.9
2021-08-17T05:53:00Z,00000200,00000000,0000.92,0000.21,0000.07,0000.48,0000.29,-000.22,-000.36,0000.16,0000.01,18.6,24.8,07.3,05.0,0676.6,30.9
2021-08-17T05:54:00Z,00000200,00000000,0001.44,0000.31,0000.29,-000.26,0000.25,0000.23,-000.18,-000.14,0000.08,18.6,24.8,07.4,05.1,0676.6,30.9
2021-08-17T05:55:00Z,00000200,00000000,0000.90,0000.52,0000.25,0000.05,0000.03,-000.00,0000.74,0000.30,0000.09,18.6,24.8,07.4,05.1,0676.6,30.9
2021-08-17T05:56:00Z,00000200,00000000,0001.39,0000.85,0000.51,0000.54,-000.10,0000.45,0000.01,0000.09,0000.32,18.6,24.8,07.2,04.9,0676.6,30.9
2021-08-17T05:57:00Z,00000200,40000000,,,,,,,0000.16,0000.33,0000.13,18.6,24.8,06.7,04.6,0676.6,30.9
2021-08-17T05:58:00Z,00000200,60000000,,,,,,,-000.35,-000.39,-000.08,18.4,25.0,07.4,04.9,0675.7,30.9
2021-08-17T05:59:00Z,00000200,20000000,,,,,,,0000.23,0000.27,-000.35,18.4,25.1,07.2,04.8,0675.7,30.9
